"datetime","# probes","# resolvers","can_ipv6","can_ipv6_prbs","can_tcp","can_tcp_prbs","can_tcp6","can_tcp6_prbs","does_ecs","does_ecs_prbs","does_flagday","does_flagday_prbs","does_rov4","does_rov4_prbs","does_rov6","does_rov6_prbs","does_qnamemin","doesnt_qnamemin","does_qnamemin_prbs","doesnt_qnamemin_prbs","does_nxdomain","doesnt_nxdomain","does_nxdomain_prbs","doesnt_nxdomain_prbs","has_ta_19036","hasnt_ta_19036","has_ta_19036_prbs","hasnt_ta_19036_prbs","has_ta_20326","hasnt_ta_20326","has_ta_20326_prbs","hasnt_ta_20326_prbs","can_rsamd5","cannot_rsamd5","broken_rsamd5","can_rsamd5_prbs","cannot_rsamd5_prbs","broken_rsamd5_prbs","can_dsa","cannot_dsa","broken_dsa","can_dsa_prbs","cannot_dsa_prbs","broken_dsa_prbs","can_rsasha1","cannot_rsasha1","broken_rsasha1","can_rsasha1_prbs","cannot_rsasha1_prbs","broken_rsasha1_prbs","can_dsansec3","cannot_dsansec3","broken_dsansec3","can_dsansec3_prbs","cannot_dsansec3_prbs","broken_dsansec3_prbs","can_rsansec3","cannot_rsansec3","broken_rsansec3","can_rsansec3_prbs","cannot_rsansec3_prbs","broken_rsansec3_prbs","can_rsasha256","cannot_rsasha256","broken_rsasha256","can_rsasha256_prbs","cannot_rsasha256_prbs","broken_rsasha256_prbs","can_rsasha512","cannot_rsasha512","broken_rsasha512","can_rsasha512_prbs","cannot_rsasha512_prbs","broken_rsasha512_prbs","can_eccgost","cannot_eccgost","broken_eccgost","can_eccgost_prbs","cannot_eccgost_prbs","broken_eccgost_prbs","can_ecdsa256","cannot_ecdsa256","broken_ecdsa256","can_ecdsa256_prbs","cannot_ecdsa256_prbs","broken_ecdsa256_prbs","can_ecdsa384","cannot_ecdsa384","broken_ecdsa384","can_ecdsa384_prbs","cannot_ecdsa384_prbs","broken_ecdsa384_prbs","can_ed25519","cannot_ed25519","broken_ed25519","can_ed25519_prbs","cannot_ed25519_prbs","broken_ed25519_prbs","can_ed448","cannot_ed448","broken_ed448","can_ed448_prbs","cannot_ed448_prbs","broken_ed448_prbs","can_gost","cannot_gost","broken_gost","can_gost_prbs","cannot_gost_prbs","broken_gost_prbs","can_sha384","cannot_sha384","broken_sha384","can_sha384_prbs","cannot_sha384_prbs","broken_sha384_prbs","is_internal","is_forwarding","is_external","is_internal_prbs","is_forwarding_prbs","is_external_prbs"
2019-01-28T23:59:55Z,121,202,53,48,202,121,47,45,2,14,202,121,0,0,0,0,36,166,27,102,0,202,0,121,0,6,0,3,6,0,3,0,2,198,2,2,118,13,5,196,1,6,118,1,51,151,0,46,85,0,9,191,2,10,114,2,49,153,0,45,86,0,49,153,0,45,86,0,49,153,0,45,86,0,1,201,0,1,121,0,48,154,0,45,87,0,50,152,0,46,86,0,33,168,1,35,99,1,0,200,2,0,120,1,1,199,2,12,118,3,49,153,0,45,86,0,141,45,16,82,44,19
2019-01-29T23:59:56Z,130,218,58,53,218,130,51,48,1,14,218,130,0,0,0,0,38,180,29,109,0,218,0,130,0,6,0,3,6,0,3,0,2,214,2,2,127,15,5,212,1,6,126,1,49,169,0,45,96,0,9,208,1,9,124,1,50,168,0,46,95,0,50,168,0,46,95,0,50,168,0,46,95,0,2,216,0,2,130,0,49,168,1,46,95,1,50,168,0,46,95,0,37,181,0,38,104,0,0,218,0,0,130,0,2,213,3,15,127,3,50,168,0,46,95,0,155,47,16,91,46,21
2019-01-30T23:59:57Z,183,307,143,104,306,183,137,100,74,62,307,183,0,0,0,0,38,269,29,163,0,306,0,182,0,9,0,7,10,0,8,0,7,234,66,9,141,56,14,292,1,16,175,1,128,178,1,93,106,1,15,291,1,14,175,1,129,177,1,94,105,1,129,177,1,94,105,1,130,177,0,94,105,0,3,302,2,5,181,1,128,178,1,94,106,1,129,178,0,94,106,0,106,201,0,83,123,0,0,305,2,0,182,2,68,235,4,57,142,4,130,177,0,94,105,0,162,82,63,101,75,46
2019-01-31T23:59:57Z,192,323,157,112,321,191,153,110,78,65,323,192,0,0,0,0,43,280,32,170,0,323,0,192,0,12,0,9,13,0,9,0,10,246,67,11,150,55,24,298,1,23,177,1,140,183,0,99,110,0,21,301,1,21,179,1,141,182,0,100,109,0,141,182,0,100,109,0,141,182,0,100,109,0,7,316,0,8,190,0,141,182,0,100,109,0,141,182,0,100,109,0,110,213,0,80,134,0,0,323,0,0,192,0,73,246,4,60,151,4,141,182,0,100,109,0,165,93,65,103,84,45
2019-02-01T23:59:57Z,144,244,81,66,243,144,76,62,17,28,244,144,0,0,0,0,42,202,31,123,0,244,0,144,0,7,0,6,7,0,6,0,3,225,16,5,134,27,11,232,1,11,138,1,76,168,0,62,97,0,12,231,1,14,139,1,75,169,0,61,98,0,76,168,0,62,97,0,76,168,0,62,97,0,2,242,0,4,144,0,76,168,0,62,97,0,76,168,0,62,97,0,55,189,0,50,112,0,0,244,0,0,144,0,17,223,4,29,132,4,76,168,0,62,97,0,153,62,29,90,58,31
2019-02-02T23:59:57Z,141,237,77,64,237,141,74,62,11,24,237,141,0,0,0,0,43,194,31,121,0,237,0,141,0,5,0,5,5,0,5,0,3,223,11,5,131,24,13,221,3,13,131,3,69,168,0,58,95,0,10,225,2,13,133,2,68,169,0,57,96,0,69,168,0,58,95,0,69,168,0,58,95,0,2,235,0,4,141,0,69,168,0,58,95,0,69,168,0,58,95,0,50,187,0,47,110,0,0,237,0,0,141,0,13,219,5,28,129,4,69,168,0,58,95,0,156,57,24,94,50,29
2019-02-03T23:59:59Z,138,231,69,61,230,138,62,57,7,24,231,138,0,0,0,0,42,189,31,119,0,231,0,138,0,4,0,4,4,0,4,0,4,218,9,5,129,25,5,221,5,6,132,3,62,169,0,57,96,0,7,219,5,9,132,3,59,172,0,55,98,0,59,172,0,55,98,0,59,172,0,55,98,0,1,230,0,3,138,0,60,171,0,56,97,0,60,171,0,56,97,0,48,183,0,49,106,0,0,231,0,0,138,0,8,218,5,27,128,4,62,169,0,57,96,0,156,53,22,92,49,29
2019-02-04T23:59:59Z,132,228,64,55,228,132,61,53,10,23,228,132,0,0,0,0,41,187,30,112,0,228,0,132,0,6,0,5,6,0,5,0,2,212,14,4,124,26,7,217,4,7,126,3,61,165,2,53,93,1,7,218,3,9,126,2,61,167,0,53,94,0,61,167,0,53,94,0,61,167,0,53,94,0,3,225,0,4,132,0,61,167,0,53,94,0,61,167,0,53,94,0,47,181,0,45,104,0,0,228,0,0,132,0,11,213,4,26,125,3,61,167,0,53,94,0,154,49,25,90,46,28
2019-02-05T23:59:58Z,135,230,67,59,230,135,62,56,8,23,230,135,0,0,0,0,40,190,29,117,0,230,0,135,0,6,0,5,6,0,5,0,2,220,8,4,129,23,11,215,4,12,126,3,62,168,0,55,94,0,10,217,3,12,128,2,62,167,1,56,93,1,63,167,0,56,93,0,63,167,0,56,93,0,2,228,0,4,135,0,62,168,0,55,94,0,62,168,0,55,94,0,48,182,0,47,104,0,0,230,0,0,135,0,10,216,4,27,127,3,63,167,0,56,93,0,155,52,23,91,48,28
2019-02-06T23:59:59Z,137,235,70,59,235,137,64,55,7,22,235,137,0,0,0,0,39,196,28,120,0,235,0,137,0,6,0,5,6,0,5,0,2,226,7,4,132,23,5,226,4,8,133,3,66,169,0,56,97,0,7,224,4,9,132,3,64,171,0,55,98,0,64,171,0,55,98,0,64,171,0,55,98,0,2,233,0,4,137,0,66,169,0,56,97,0,66,169,0,56,97,0,48,187,0,46,110,0,0,235,0,0,137,0,7,224,4,25,131,4,64,171,0,55,98,0,158,55,22,93,49,28
2019-02-07T23:59:59Z,134,226,65,57,226,134,59,53,8,23,226,134,0,0,0,0,40,186,29,116,0,226,0,134,0,6,0,5,6,0,5,0,3,216,7,5,127,23,7,215,4,8,128,3,60,166,0,54,94,0,8,214,4,11,127,3,60,166,0,54,94,0,60,166,0,54,94,0,59,166,1,54,94,1,2,224,0,5,134,0,62,164,0,55,93,0,62,164,0,55,93,0,48,178,0,46,105,0,0,226,0,0,134,0,12,210,4,28,124,4,63,163,0,56,92,0,152,51,23,92,47,28
2019-02-08T23:59:56Z,135,229,66,58,229,135,62,55,8,22,229,135,0,0,0,0,42,187,31,115,0,229,0,135,0,6,0,5,6,0,5,0,2,217,10,4,126,25,8,219,2,10,128,2,64,165,0,55,93,1,11,216,2,12,129,2,64,165,0,56,93,0,64,165,0,56,93,0,64,165,0,56,93,0,2,227,0,4,135,0,64,165,0,56,93,0,63,165,1,56,93,1,47,182,0,46,107,0,0,229,0,0,135,0,12,213,4,28,124,4,65,164,0,57,92,0,152,54,23,90,50,28
2019-02-09T23:59:59Z,135,229,65,57,229,135,60,54,10,24,229,135,0,0,0,0,41,188,30,116,0,229,0,135,0,6,0,5,6,0,5,0,3,217,9,5,129,24,7,218,4,9,129,3,59,170,0,53,98,0,10,215,4,11,128,3,59,170,0,53,98,0,59,170,0,53,98,1,59,170,0,53,98,0,3,226,0,5,135,0,59,170,0,53,98,0,59,170,0,53,98,0,44,185,0,44,108,0,0,229,0,0,135,0,12,213,4,28,126,4,59,170,0,53,98,0,156,49,24,94,45,28
2019-02-10T23:59:58Z,139,235,71,61,234,139,68,59,15,25,235,139,0,0,0,0,42,193,31,119,0,235,0,139,0,6,0,5,6,0,5,0,4,217,14,6,130,25,8,225,2,11,134,2,69,166,0,59,96,0,12,222,1,14,131,1,69,166,0,59,96,0,69,166,0,59,96,0,69,166,0,59,96,0,4,231,0,5,138,0,67,168,0,58,97,0,67,168,0,58,97,0,47,187,1,44,111,1,0,234,1,0,139,1,14,218,3,27,131,4,69,166,0,59,96,0,155,53,27,93,50,29
2019-02-11T23:59:56Z,141,238,71,62,238,141,65,58,11,25,238,141,0,0,0,0,42,196,31,121,0,238,1,141,0,6,0,4,6,0,4,0,2,224,12,4,133,27,6,231,1,7,138,1,66,172,0,59,100,1,7,229,2,8,137,3,65,173,0,58,100,0,65,173,0,58,100,0,65,173,0,58,100,1,2,236,0,3,141,1,65,173,0,58,100,0,65,173,0,58,100,1,48,190,0,47,112,0,0,238,0,0,141,1,14,222,2,29,131,3,70,168,0,61,97,0,160,53,25,96,51,29
2019-02-12T23:59:56Z,132,227,61,54,227,132,56,50,11,23,227,132,0,0,0,0,40,187,30,114,0,227,0,132,0,6,0,5,6,0,5,0,1,217,9,3,127,22,5,220,2,7,128,2,57,170,0,50,95,0,7,218,2,10,126,2,58,169,0,51,94,0,58,169,0,51,94,0,58,169,0,51,94,0,1,226,0,3,132,0,57,170,0,50,95,0,57,170,0,50,95,0,47,180,0,44,103,1,0,227,0,0,132,0,10,214,3,24,124,4,57,170,0,50,95,0,155,47,25,91,46,28
2019-02-13T23:59:56Z,136,230,68,58,229,136,63,55,12,23,230,136,0,0,0,0,39,191,28,118,0,230,0,136,0,6,0,6,6,0,6,0,2,218,10,4,128,23,6,221,3,8,132,3,62,168,0,54,96,0,7,220,3,9,131,3,62,168,0,54,96,0,62,168,0,54,96,0,62,168,0,54,96,0,2,228,0,5,136,0,62,168,0,54,96,0,62,168,0,54,96,0,46,184,0,45,107,0,0,230,0,0,136,1,12,215,3,27,126,4,62,168,0,54,96,0,154,52,24,93,47,28
2019-02-14T23:59:57Z,132,223,61,54,223,132,56,51,6,20,223,132,0,0,0,0,41,182,29,113,0,223,1,132,0,6,0,5,6,0,5,0,2,214,7,4,125,22,6,215,2,7,128,2,58,165,0,51,94,1,7,214,2,9,127,3,58,165,0,51,94,1,58,165,0,51,94,0,58,165,0,51,94,1,2,221,0,4,132,1,58,165,0,51,94,0,58,165,0,51,94,0,42,181,0,41,105,0,0,223,0,0,132,1,8,213,2,24,125,3,58,165,0,51,94,1,152,50,21,90,46,27
2019-02-15T23:59:55Z,134,226,64,56,226,134,59,53,8,20,226,134,0,0,0,0,42,184,31,113,0,226,0,134,0,6,0,5,6,0,5,0,2,217,7,4,128,21,8,212,6,9,127,5,60,166,0,53,94,0,9,214,3,10,128,3,62,164,0,54,93,0,62,164,0,54,93,0,62,164,0,54,93,0,2,224,0,4,134,0,62,164,0,54,93,0,62,164,0,54,93,0,47,179,0,44,106,1,0,226,0,0,134,1,10,212,4,24,126,5,63,163,0,55,92,0,155,50,21,92,47,26
2019-02-16T23:59:58Z,132,222,63,55,222,132,56,51,7,19,222,132,0,0,0,0,40,182,29,113,0,222,0,132,0,7,0,8,6,0,6,0,2,214,6,4,127,20,7,212,3,8,127,3,57,165,0,50,94,1,8,212,2,9,127,2,57,165,0,50,94,1,57,165,0,50,94,0,57,165,0,50,94,0,2,220,0,5,132,0,56,166,0,50,95,0,56,166,0,50,95,0,38,184,0,38,110,0,0,222,0,0,132,0,9,210,3,25,125,4,56,166,0,50,95,0,156,46,20,95,43,25
2019-02-17T23:59:57Z,132,222,63,54,222,132,59,51,6,19,222,132,0,0,0,0,37,185,26,116,0,222,0,132,0,6,0,4,6,0,4,0,3,210,9,4,123,22,7,212,3,8,126,3,61,161,0,53,92,0,7,212,3,8,127,3,58,164,0,51,94,0,59,163,0,52,93,0,59,163,0,52,93,0,2,220,0,3,132,0,59,163,0,52,93,0,59,163,0,52,93,0,43,179,0,42,106,0,0,222,0,0,132,0,9,210,3,22,124,5,59,163,0,52,93,0,154,47,21,92,44,25
2019-02-18T23:59:57Z,127,216,59,50,215,127,55,48,7,20,216,127,0,0,0,0,39,177,28,109,0,216,1,127,0,6,0,5,6,0,5,0,2,208,6,4,122,21,8,205,3,9,123,4,55,161,0,47,92,1,9,205,2,9,123,3,55,161,0,47,92,1,55,161,0,47,92,1,55,161,0,47,92,1,2,214,0,4,127,1,55,161,0,47,92,1,55,161,0,47,92,1,42,174,0,39,103,2,0,216,0,0,127,1,8,205,3,23,121,5,55,161,0,47,92,1,148,46,22,90,43,26
2019-02-19T23:59:55Z,125,214,61,50,214,125,56,47,5,17,214,125,0,0,0,0,38,176,27,109,0,214,0,125,0,6,0,6,6,0,6,0,1,207,6,4,121,19,6,206,2,7,122,2,57,157,0,47,89,0,9,203,2,12,119,2,57,157,0,47,89,0,57,157,0,47,89,1,57,157,0,47,89,0,1,213,0,4,125,0,57,157,0,47,89,0,57,157,0,47,89,0,42,171,1,39,102,1,0,213,1,0,125,1,6,204,4,20,119,5,57,155,2,47,88,1,148,46,20,89,43,24
2019-02-20T23:59:57Z,127,221,68,52,221,127,63,49,10,19,221,127,0,0,0,0,39,182,27,110,0,221,0,127,0,7,0,6,6,0,5,0,1,210,10,3,121,21,7,212,2,9,123,2,62,159,0,48,90,0,9,210,2,9,124,2,64,157,0,49,89,1,64,157,0,49,89,0,64,157,0,49,89,0,1,220,0,3,127,0,63,157,1,49,89,1,64,157,0,49,89,0,50,170,1,42,99,1,0,220,1,0,127,1,10,207,4,22,119,5,62,159,0,48,90,0,149,49,23,89,43,25
2019-02-21T23:59:56Z,132,225,68,56,225,132,60,50,8,20,225,132,0,0,0,0,40,185,29,115,0,225,0,132,0,6,0,5,6,0,6,0,2,215,8,5,125,21,11,212,2,12,127,2,63,162,0,51,92,0,13,209,3,15,124,3,63,160,2,51,91,1,63,160,2,51,91,1,63,162,0,51,92,0,2,223,0,4,132,0,63,162,0,51,93,0,63,160,2,51,92,1,46,178,1,43,107,1,0,224,1,0,132,1,10,211,4,24,123,5,64,160,1,52,91,1,152,49,24,91,45,28
2019-02-22T23:59:59Z,137,234,75,60,234,137,71,58,13,23,234,137,0,0,0,0,48,186,34,115,0,234,0,137,0,6,0,6,6,0,6,0,2,218,14,5,129,25,8,223,3,10,133,3,73,161,0,58,93,0,9,222,3,13,131,3,74,159,1,59,92,1,74,160,0,59,93,0,73,159,2,58,92,1,3,229,2,6,135,1,72,160,2,58,93,1,72,160,2,58,93,1,51,180,3,46,109,2,0,231,3,0,136,2,17,214,3,29,127,4,73,161,0,58,93,0,152,52,30,91,49,30
2019-02-23T23:59:59Z,139,233,74,61,233,139,70,58,11,25,233,139,0,0,0,0,47,186,33,117,0,233,0,139,0,6,0,5,6,0,5,0,2,220,11,4,129,26,8,222,3,8,134,3,69,164,0,58,95,0,8,222,3,9,134,3,69,164,0,58,95,0,69,164,0,58,95,0,69,164,0,58,95,0,2,231,0,4,138,0,69,164,0,58,96,0,69,164,0,58,96,0,53,179,1,48,107,1,0,232,1,0,139,1,13,216,4,29,126,5,70,163,0,59,94,0,152,53,28,91,48,32
2019-02-24T23:59:56Z,135,225,70,60,225,135,66,58,10,23,225,135,0,0,0,0,44,181,30,115,0,225,0,135,0,6,0,5,6,0,5,0,2,213,10,5,127,24,10,214,1,13,130,1,68,157,0,58,92,0,12,212,1,15,128,1,68,155,2,58,91,1,68,155,2,58,91,1,68,155,2,58,91,1,3,220,2,6,133,1,69,156,0,59,92,0,67,156,2,58,92,1,50,174,1,45,106,1,0,225,0,0,135,0,13,209,3,28,125,4,68,157,0,58,92,0,151,49,25,90,47,29
2019-02-25T23:59:56Z,133,223,67,57,223,133,63,54,6,20,223,133,0,0,0,0,46,177,31,112,0,223,0,133,0,6,0,4,6,0,4,0,5,211,7,7,125,21,11,211,1,14,126,1,67,156,0,57,90,0,11,211,1,13,127,1,65,158,0,56,91,0,65,158,0,56,91,0,65,158,0,56,91,0,3,220,0,5,132,1,67,156,0,57,90,0,67,156,0,57,90,0,49,174,0,44,104,0,0,223,0,0,133,0,11,209,3,26,124,4,67,156,0,57,90,0,155,48,20,92,46,25
2019-02-26T23:59:56Z,133,220,65,58,220,133,61,55,6,17,220,133,0,0,0,0,40,180,29,113,0,220,0,133,0,6,0,5,8,0,6,0,2,212,6,5,128,19,7,212,1,8,128,1,63,157,0,55,91,2,9,209,2,12,127,2,64,156,0,56,90,1,64,156,0,56,90,1,64,156,0,56,90,1,3,217,0,6,132,1,64,156,0,56,90,1,64,156,0,56,90,1,43,176,1,41,105,1,0,219,1,0,133,1,9,209,2,23,126,3,64,156,0,56,90,0,154,48,18,92,45,23
2019-02-27T23:59:56Z,134,224,67,58,224,134,62,54,10,20,224,134,0,0,0,0,45,179,32,110,0,224,0,134,0,10,0,7,10,0,7,0,2,214,8,6,128,20,10,213,1,11,128,1,66,158,0,56,91,0,9,213,2,13,128,2,66,158,0,56,91,0,66,158,0,56,91,0,66,158,0,56,91,0,3,221,0,6,133,0,66,158,0,56,91,0,66,158,0,56,91,0,44,179,1,44,106,1,0,223,1,0,134,1,13,209,2,26,125,3,67,157,0,57,90,0,156,48,20,93,46,25
2019-02-28T23:59:57Z,132,221,63,56,221,132,56,51,6,19,221,132,0,0,0,0,46,175,33,108,0,221,0,132,0,10,0,7,10,0,7,0,1,215,5,5,128,19,9,211,1,10,127,1,60,161,0,53,92,0,8,211,2,10,127,2,60,161,0,53,92,0,60,161,0,53,92,0,60,161,0,53,92,0,2,219,0,6,131,0,60,161,0,53,92,0,60,161,0,53,92,0,41,179,1,41,105,1,0,220,1,0,132,1,7,212,2,24,125,3,60,161,0,53,92,0,159,43,19,94,41,26
2019-03-01T23:59:59Z,131,221,62,54,221,131,57,51,5,18,221,131,0,0,0,0,45,176,32,107,0,221,0,131,0,10,0,7,10,0,7,0,3,213,5,7,125,19,12,208,1,13,125,1,62,159,0,53,90,0,10,209,2,13,125,2,62,159,0,53,90,0,62,159,0,53,90,0,62,159,0,53,90,0,4,217,0,7,130,0,61,159,1,53,91,1,62,159,0,53,91,0,43,177,1,42,105,1,0,220,1,0,131,1,9,210,2,24,123,3,63,158,0,54,89,0,159,44,18,94,42,25
2019-03-02T23:59:58Z,132,221,65,56,221,132,59,52,5,19,221,132,0,0,0,0,45,176,33,108,0,221,0,132,0,10,0,7,10,0,7,0,3,212,6,6,126,21,14,206,1,15,123,1,66,155,0,57,88,0,11,208,2,12,125,2,66,155,0,57,88,0,66,155,0,57,88,0,66,155,0,57,88,0,2,219,0,5,131,0,66,155,0,57,89,0,66,155,0,57,89,0,43,177,1,44,106,1,0,220,1,0,132,1,7,212,2,24,126,3,66,155,0,57,88,0,153,49,19,90,45,26
2019-03-03T23:59:58Z,139,230,74,64,228,139,67,59,10,22,230,139,0,0,0,0,47,182,34,115,0,229,0,139,0,10,0,7,10,0,7,0,4,215,10,9,129,22,10,217,2,11,132,2,73,156,0,62,91,0,11,215,3,14,132,3,73,156,0,62,91,0,73,156,0,62,91,0,73,156,0,62,91,0,3,226,0,7,138,0,73,156,0,62,91,0,73,156,0,62,91,0,50,178,1,44,108,1,0,228,1,0,139,1,13,213,3,28,129,4,73,156,0,62,91,0,156,52,21,95,46,28
2019-03-04T23:59:59Z,133,218,69,61,216,133,64,58,6,23,218,133,0,0,0,0,46,171,33,110,0,217,0,133,0,10,0,7,10,0,7,0,3,207,7,6,125,23,8,207,2,8,128,2,68,148,1,59,88,1,13,201,3,13,126,3,69,148,0,59,88,0,69,148,0,59,88,0,69,148,0,59,88,0,3,214,0,6,132,0,69,148,0,59,88,0,69,148,0,59,88,0,50,167,0,48,101,0,0,217,0,0,133,0,8,206,3,27,125,4,69,148,0,59,88,0,148,51,18,91,45,28
2019-03-05T23:59:57Z,129,213,65,56,211,129,59,53,5,19,213,129,0,0,0,0,47,165,35,104,0,212,0,129,0,10,0,7,10,0,7,0,2,202,8,6,123,21,10,200,2,13,124,2,65,147,0,56,88,0,9,201,2,10,123,2,63,149,0,55,89,0,63,149,0,55,89,0,63,149,0,55,89,0,2,210,0,5,128,0,63,149,0,55,89,0,63,149,0,55,89,0,44,168,0,41,103,0,0,212,0,0,129,0,10,199,3,25,121,4,63,149,0,55,89,0,148,45,19,91,42,26
2019-03-06T23:59:57Z,129,213,66,57,213,129,60,54,6,20,213,129,0,0,0,0,46,167,33,105,0,213,0,129,0,10,0,7,10,0,7,0,3,204,6,6,122,21,14,197,2,14,121,2,67,146,0,58,85,0,14,197,2,16,121,2,67,146,0,58,85,0,67,146,0,58,85,0,67,146,0,58,85,0,3,210,0,6,128,0,67,146,0,58,85,0,67,146,0,58,85,0,48,165,0,46,100,0,0,213,0,0,129,0,9,201,3,26,121,4,67,146,0,58,85,0,145,48,20,88,43,26
2019-03-07T23:59:57Z,129,218,68,57,217,129,62,54,8,21,218,129,0,0,0,0,46,171,34,106,0,218,0,129,0,10,0,6,10,0,7,0,3,206,8,5,121,21,12,203,2,12,121,2,71,146,0,58,84,0,13,202,2,14,121,2,69,148,0,57,85,0,69,148,0,57,85,0,69,148,0,57,85,0,3,214,0,5,128,0,69,148,0,57,85,0,71,146,0,58,84,0,48,169,0,44,102,0,0,217,0,0,129,0,9,206,2,24,122,3,71,146,0,58,84,0,148,49,20,89,43,27
2019-03-08T23:59:57Z,129,212,66,57,211,129,59,53,6,18,212,129,0,0,0,0,46,166,33,106,0,212,0,129,0,10,0,7,10,0,7,0,2,204,6,5,125,19,10,200,2,11,124,2,66,146,0,57,86,0,9,201,2,12,124,3,65,147,0,56,86,0,65,147,0,56,86,0,65,147,0,56,86,0,2,210,0,5,128,0,65,147,0,56,86,0,65,147,0,56,86,0,45,167,0,44,102,0,0,212,0,0,129,0,9,200,3,24,121,4,65,147,0,56,86,0,145,47,20,89,44,25
2019-03-09T23:59:56Z,130,216,69,59,215,130,63,56,11,22,216,130,0,0,0,0,45,170,32,107,0,216,0,130,0,10,0,6,10,0,6,0,3,199,13,5,120,22,11,202,2,12,124,3,72,143,0,58,84,0,10,203,2,10,125,3,72,143,0,58,84,0,72,143,0,58,84,0,72,143,0,58,84,0,3,212,0,5,129,0,72,143,0,58,84,0,72,143,0,58,84,0,50,165,0,45,100,0,0,215,0,0,130,0,16,197,2,26,120,4,72,143,0,58,84,0,146,50,19,88,46,24
2019-03-10T23:59:56Z,128,209,63,58,208,128,57,55,6,21,209,128,0,0,0,0,44,164,32,105,0,209,0,128,0,10,0,7,10,0,6,0,2,199,7,4,121,21,10,195,3,10,122,4,63,145,0,54,87,0,9,196,3,9,121,3,64,144,0,55,86,1,64,144,0,55,86,0,64,144,0,55,86,1,4,204,0,6,126,0,64,144,0,55,86,0,64,144,0,55,86,0,43,165,0,41,101,0,0,208,0,0,128,0,10,195,3,25,119,4,65,143,0,56,85,0,146,45,17,89,45,23
2019-03-11T23:59:57Z,133,215,70,63,214,133,65,60,18,28,215,133,0,0,0,0,41,173,30,112,0,215,0,133,0,10,0,6,10,0,6,0,2,192,20,4,119,29,11,200,3,11,127,3,71,143,0,61,87,0,11,200,3,11,125,3,71,143,0,60,87,1,70,144,0,60,87,0,71,143,0,60,87,1,2,211,1,4,132,1,71,143,0,60,87,0,71,143,0,60,87,0,53,161,0,50,100,0,2,212,0,1,132,0,21,189,4,30,117,5,71,143,0,60,87,0,144,43,27,87,46,30
2019-03-12T23:59:56Z,146,238,89,73,237,146,84,70,37,39,238,146,0,0,0,0,41,196,31,124,0,238,0,146,0,10,0,6,10,0,6,0,2,197,38,5,123,39,8,226,3,10,141,3,91,146,0,72,90,0,10,224,3,12,140,3,88,149,0,70,92,1,88,149,0,70,92,0,88,149,0,70,92,1,2,235,0,4,145,0,88,149,0,70,92,0,82,155,0,67,97,0,66,171,0,57,108,0,0,237,0,0,146,0,37,197,3,40,124,4,85,152,0,68,95,0,150,46,41,93,49,37
2019-03-13T23:59:57Z,155,254,103,83,253,155,96,78,45,42,254,155,0,0,0,0,41,212,30,132,1,253,1,155,0,11,0,8,11,0,9,0,10,204,39,14,127,37,11,239,3,15,148,3,99,154,0,78,96,0,14,236,3,14,147,3,99,154,0,75,95,1,101,152,0,76,94,0,93,160,0,71,99,1,4,249,0,7,153,0,102,150,1,79,92,1,94,159,0,70,99,0,76,177,0,62,112,0,0,252,1,0,155,1,47,202,4,44,127,5,102,151,0,78,93,0,149,57,47,94,57,38
2019-03-14T23:59:58Z,163,271,113,91,270,163,106,86,53,48,271,163,0,0,0,0,40,230,31,140,1,270,1,163,0,10,0,9,9,0,8,0,11,216,43,15,135,39,14,253,3,16,155,3,91,179,0,73,111,1,14,253,3,17,154,3,107,163,0,83,98,1,101,169,0,79,103,0,103,167,0,81,102,1,4,266,0,8,161,0,107,163,0,84,99,0,89,181,0,71,113,1,82,188,0,67,120,0,1,269,0,1,163,0,53,213,4,49,133,6,97,173,0,74,107,0,158,61,51,96,63,40
2019-03-15T23:59:59Z,164,269,114,90,268,164,108,86,53,49,269,164,0,0,0,0,40,228,29,142,1,268,1,164,0,9,0,8,9,0,8,0,6,213,49,11,133,44,11,254,3,14,157,3,98,170,0,75,106,0,13,252,3,15,157,3,105,163,0,81,102,1,92,176,0,72,112,0,102,166,0,79,104,1,4,264,0,8,162,0,102,166,0,82,102,0,86,182,0,69,115,1,84,184,0,69,119,0,0,268,0,0,164,0,31,233,4,32,144,5,97,171,0,75,105,0,155,62,51,98,62,42
2019-03-16T23:59:59Z,157,261,108,84,260,157,102,80,49,45,261,157,0,0,0,0,41,219,31,134,1,260,1,157,0,9,0,7,9,0,7,0,8,214,38,12,135,36,12,245,3,14,151,3,81,179,0,65,110,0,11,246,3,13,149,3,91,169,0,74,107,1,75,185,0,59,114,0,92,168,0,75,105,1,3,257,0,6,155,0,97,163,0,74,102,0,83,177,0,66,112,1,80,180,0,64,115,0,0,260,0,0,157,0,31,225,4,33,140,5,86,174,0,67,107,0,156,55,49,96,58,40
2019-03-17T23:59:59Z,157,257,104,83,257,157,97,78,47,42,257,157,0,0,0,0,43,214,32,132,1,256,1,157,0,10,0,8,10,0,8,0,8,213,36,13,134,34,12,241,4,16,147,4,88,169,0,72,105,0,11,243,3,14,149,3,89,168,0,72,105,1,77,180,0,60,113,0,84,173,0,68,108,1,4,253,0,7,154,0,96,161,0,77,99,0,86,171,0,70,107,1,76,181,0,60,119,0,0,257,0,0,157,0,26,227,4,29,143,5,93,164,0,73,103,0,157,53,47,98,58,38
2019-03-18T23:59:59Z,163,268,113,88,267,163,105,84,51,46,268,163,0,0,0,0,45,223,32,138,1,266,1,163,0,11,0,9,11,0,9,0,11,224,33,17,135,32,13,251,4,16,153,4,85,182,1,66,114,1,13,251,4,15,153,4,98,169,1,76,103,2,98,169,1,75,102,1,97,170,1,75,106,2,3,264,1,7,161,1,99,168,1,79,102,1,97,170,1,77,106,2,75,192,1,61,119,1,0,267,1,0,163,1,35,227,6,36,141,7,103,164,1,85,101,1,159,61,48,100,62,38
2019-03-19T23:59:59Z,161,268,114,87,267,161,107,83,50,44,268,161,0,0,0,0,46,222,33,135,1,266,1,161,0,11,0,9,11,0,9,0,8,226,34,12,141,31,10,254,4,13,154,4,83,184,1,66,116,1,11,253,4,15,153,4,85,182,1,67,113,2,89,178,1,69,112,1,92,175,1,74,109,2,4,263,1,8,159,1,99,168,1,74,105,1,82,184,2,65,112,3,80,187,1,63,120,1,0,267,1,0,161,2,38,225,5,38,143,6,91,176,1,70,109,1,157,62,49,98,64,38
2019-03-20T23:59:59Z,156,261,106,81,260,156,99,77,44,41,261,156,0,0,0,0,49,212,34,129,1,259,1,156,0,11,0,8,11,0,8,0,9,222,30,13,134,31,9,248,4,11,150,4,75,185,1,60,116,1,8,249,4,11,150,4,88,172,1,68,106,2,84,176,1,64,107,1,81,179,1,61,113,2,4,255,2,7,153,2,86,172,3,66,106,2,82,178,1,63,111,2,72,188,1,60,115,1,0,258,3,0,155,2,27,229,5,32,140,6,92,168,1,75,103,1,159,59,43,98,59,35
2019-03-21T23:59:59Z,160,267,111,85,267,160,105,81,45,39,267,160,0,0,0,0,50,217,36,131,1,266,1,160,0,11,0,7,11,0,7,0,10,235,22,13,142,20,11,253,3,13,152,3,84,183,0,64,110,0,11,253,3,13,153,3,86,181,0,67,110,1,87,180,0,67,112,0,80,187,0,65,116,1,4,263,0,6,158,0,93,174,0,71,109,0,91,176,0,72,108,1,67,200,0,54,124,0,0,267,0,0,160,0,30,233,4,29,145,5,84,183,0,66,112,0,158,61,48,97,61,37
2019-03-22T23:59:59Z,161,264,109,86,264,161,103,82,48,43,264,161,0,0,0,0,47,217,33,136,1,263,1,161,0,12,1,10,12,0,11,0,11,231,22,17,142,22,14,247,3,19,150,3,79,185,0,65,114,0,15,246,3,19,152,3,79,185,0,64,114,1,88,176,0,70,108,0,83,181,0,69,111,1,5,259,0,9,158,0,91,173,0,72,108,0,82,182,0,67,112,1,59,205,0,46,128,0,0,264,0,0,161,0,30,230,4,33,144,5,89,175,0,74,107,0,160,62,42,102,62,34
2019-03-23T23:59:59Z,167,274,115,90,274,167,107,83,50,44,274,167,0,0,0,0,47,227,33,141,1,273,1,167,0,11,0,8,11,0,8,0,13,239,22,17,147,22,12,259,3,15,159,3,82,192,0,65,116,0,11,260,3,14,159,3,79,195,0,62,118,1,87,187,0,68,112,0,90,184,0,69,113,1,4,270,0,6,165,0,94,180,0,74,112,0,83,191,0,65,117,1,58,216,0,50,138,0,0,274,0,0,167,0,35,235,4,33,147,5,81,193,0,64,118,0,163,62,49,103,63,38
2019-03-24T23:59:59Z,164,272,117,88,272,164,110,83,51,47,272,164,0,0,0,0,46,226,31,140,1,271,1,164,0,11,0,8,11,0,8,0,11,235,26,14,145,27,11,258,3,12,159,3,87,185,0,68,115,0,11,258,3,12,159,3,81,191,0,61,120,1,98,174,0,76,112,0,87,185,0,69,116,1,3,269,0,5,162,0,94,178,0,71,113,0,96,176,0,73,110,1,72,200,0,57,124,0,0,272,0,0,164,0,35,233,4,35,145,5,91,181,0,68,116,0,156,67,49,97,64,41
2019-03-25T23:59:59Z,164,270,111,87,268,164,104,82,48,43,270,164,0,0,0,0,48,220,34,137,1,267,1,164,0,11,0,9,11,0,9,0,15,230,23,19,141,24,15,251,2,17,155,2,88,180,0,71,114,0,14,252,2,17,155,2,79,189,0,63,116,1,78,190,0,64,121,0,91,177,0,73,111,1,4,264,0,7,162,0,93,175,0,74,109,0,97,171,0,77,106,1,60,208,0,50,131,0,0,268,0,0,164,0,24,241,3,26,149,4,85,182,1,69,116,1,161,60,47,102,62,38
2019-03-26T23:59:59Z,164,270,111,87,268,164,104,82,48,43,270,164,0,0,0,0,48,220,34,137,1,267,1,164,0,11,0,9,11,0,9,0,15,230,23,19,141,24,15,251,2,17,155,2,88,180,0,71,114,0,14,252,2,17,155,2,79,189,0,63,116,1,78,190,0,64,121,0,91,177,0,73,111,1,4,264,0,7,162,0,93,175,0,74,109,0,97,171,0,77,106,1,60,208,0,50,131,0,0,268,0,0,164,0,24,241,3,26,149,4,85,182,1,69,116,1,161,60,47,102,62,38